When you browse on this site, cookies collect data to enhance your experience and personalize the content and advertising you see.
Visit our Privacy Policy to learn more. By continuing to use the site, you agree to this use of cookies and data.
  • In Latvia
  • List of Countries
  • For 7 days
  • Water Temperature
  • Satellite Maps
  • Weather Map
  • Weather Widgets
  • user-avatar
    Login

    Hourly Weather Malanville

    Today, 16 November, Friday

    Time Temperature Precipitation Wind Pressure Humidity
    00:00 +27°C° 0 mm 2 mps 744 mmHg 18%
    01:00 +26°C° 0 mm 2 mps 744 mmHg 18%
    02:00 +26°C° 0 mm 2 mps 743 mmHg 18%
    03:00 +25°C° 0 mm 2 mps 743 mmHg 18%
    04:00 +25°C° 0 mm 2 mps 744 mmHg 19%
    05:00 +24°C° 0 mm 2 mps 744 mmHg 19%
    06:00 +24°C° 0 mm 2 mps 744 mmHg 19%
    07:00 +27°C° 0 mm 2 mps 744 mmHg 17%
    08:00 +30°C° 0 mm 3 mps 745 mmHg 14%
    09:00 +34°C° 0 mm 3 mps 745 mmHg 12%
    10:00 +36°C° 0 mm 3 mps 745 mmHg 10%
    11:00 +38°C° 0 mm 3 mps 744 mmHg 9%
    12:00 +39°C° 0 mm 3 mps 744 mmHg 9%
    13:00 +39°C° 0 mm 3 mps 744 mmHg 8%
    14:00 +39°C° 0 mm 3 mps 743 mmHg 8%
    15:00 +40°C° 0 mm 2 mps 743 mmHg 8%
    16:00 +37°C° 0 mm 2 mps 742 mmHg 9%
    17:00 +34°C° 0 mm 2 mps 742 mmHg 11%
    18:00 +31°C° 0 mm 2 mps 742 mmHg 12%
    19:00 +30°C° 0 mm 2 mps 743 mmHg 12%
    20:00 +30°C° 0 mm 2 mps 743 mmHg 13%
    21:00 +29°C° 0 mm 2 mps 744 mmHg 13%
    22:00 +28°C° 0 mm 2 mps 744 mmHg 13%
    23:00 +28°C° 0 mm 2 mps 744 mmHg 14%

    Tomorrow, 17 November, Saturday

    Time Temperature Precipitation Wind Pressure Humidity
    00:00 +27°C° 0 mm 2 mps 744 mmHg 14%
    01:00 +27°C° 0 mm 2 mps 744 mmHg 15%
    02:00 +26°C° 0 mm 2 mps 743 mmHg 15%
    03:00 +25°C° 0 mm 2 mps 743 mmHg 16%
    04:00 +25°C° 0 mm 2 mps 744 mmHg 17%
    05:00 +24°C° 0 mm 2 mps 744 mmHg 18%
    06:00 +24°C° 0 mm 2 mps 744 mmHg 19%
    07:00 +27°C° 0 mm 3 mps 745 mmHg 17%
    08:00 +30°C° 0 mm 3 mps 745 mmHg 14%
    09:00 +35°C° 0 mm 4 mps 745 mmHg 12%
    10:00 +36°C° 0 mm 3 mps 745 mmHg 11%
    11:00 +38°C° 0 mm 3 mps 744 mmHg 10%
    12:00 +40°C° 0 mm 2 mps 744 mmHg 9%
    13:00 +40°C° 0 mm 2 mps 743 mmHg 9%
    14:00 +41°C° 0 mm 1 mps 742 mmHg 8%
    15:00 +38°C° 0 mm 0 mps 741 mmHg 8%
    16:00 +35°C° 0 mm 0 mps 741 mmHg 10%
    17:00 +32°C° 0 mm 0 mps 742 mmHg 12%
    18:00 +29°C° 0 mm 0 mps 742 mmHg 13%
    19:00 +31°C° 0 mm 1 mps 742 mmHg 14%
    20:00 +30°C° 0 mm 1 mps 743 mmHg 14%
    21:00 +29°C° 0 mm 1 mps 743 mmHg 15%
    22:00 +29°C° 0 mm 1 mps 743 mmHg 15%
    23:00 +28°C° 0 mm 1 mps 743 mmHg 16%

    Day after tomorrow, 18 November, Sunday

    Time Temperature Precipitation Wind Pressure Humidity
    00:00 +28°C° 0 mm 1 mps 743 mmHg 16%
    01:00 +27°C° 0 mm 1 mps 742 mmHg 17%
    02:00 +27°C° 0 mm 1 mps 742 mmHg 17%
    03:00 +27°C° 0 mm 1 mps 742 mmHg 18%
    04:00 +26°C° 0 mm 1 mps 742 mmHg 18%
    05:00 +26°C° 0 mm 1 mps 743 mmHg 18%
    06:00 +26°C° 0 mm 2 mps 743 mmHg 19%
    07:00 +29°C° 0 mm 2 mps 744 mmHg 17%
    08:00 +32°C° 0 mm 2 mps 744 mmHg 16%
    09:00 +36°C° 0 mm 2 mps 745 mmHg 14%
    10:00 +38°C° 0 mm 2 mps 744 mmHg 13%
    11:00 +40°C° 0 mm 2 mps 743 mmHg 11%
    12:00 +41°C° 0 mm 2 mps 743 mmHg 10%
    13:00 +42°C° 0 mm 1 mps 742 mmHg 9%
    14:00 +42°C° 0 mm 1 mps 741 mmHg 9%
    15:00 +39°C° 0 mm 0 mps 740 mmHg 9%
    16:00 +39°C° 0 mm 1 mps 740 mmHg 10%
    17:00 +36°C° 0 mm 1 mps 741 mmHg 11%
    18:00 +34°C° 0 mm 2 mps 741 mmHg 13%
    19:00 +34°C° 0 mm 2 mps 741 mmHg 13%
    20:00 +32°C° 0 mm 2 mps 742 mmHg 13%
    21:00 +31°C° 0 mm 1 mps 742 mmHg 13%
    22:00 +31°C° 0 mm 1 mps 742 mmHg 14%
    23:00 +30°C° 0 mm 1 mps 742 mmHg 14%

    19 November, Monday

    Time Temperature Precipitation Wind Pressure Humidity
    00:00 +30°C° 0 mm 1 mps 742 mmHg 14%
    01:00 +29°C° 0 mm 1 mps 742 mmHg 15%
    02:00 +29°C° 0 mm 1 mps 741 mmHg 15%
    03:00 +28°C° 0 mm 1 mps 741 mmHg 16%
    04:00 +27°C° 0 mm 1 mps 741 mmHg 17%
    05:00 +27°C° 0 mm 1 mps 742 mmHg 17%
    06:00 +27°C° 0 mm 1 mps 742 mmHg 18%
    07:00 +30°C° 0 mm 2 mps 743 mmHg 16%
    08:00 +34°C° 0 mm 2 mps 743 mmHg 14%
    09:00 +37°C° 0 mm 3 mps 744 mmHg 12%
    10:00 +39°C° 0 mm 3 mps 743 mmHg 11%
    11:00 +42°C° 0 mm 3 mps 742 mmHg 10%
    12:00 +43°C° 0 mm 3 mps 742 mmHg 9%
    13:00 +42°C° 0 mm 2 mps 741 mmHg 9%
    14:00 +42°C° 0 mm 2 mps 740 mmHg 9%
    15:00 +42°C° 0 mm 1 mps 739 mmHg 9%
    16:00 +40°C° 0 mm 1 mps 740 mmHg 11%
    17:00 +36°C° 0 mm 1 mps 740 mmHg 13%
    18:00 +34°C° 0 mm 1 mps 740 mmHg 15%
    19:00 +33°C° 0 mm 1 mps 740 mmHg 16%
    20:00 +32°C° 0 mm 1 mps 741 mmHg 17%
    21:00 +31°C° 0 mm 1 mps 742 mmHg 18%
    22:00 +31°C° 0 mm 1 mps 742 mmHg 18%
    23:00 +31°C° 0 mm 1 mps 742 mmHg 19%

    20 November, Tuesday

    Time Temperature Precipitation Wind Pressure Humidity
    00:00 +30°C° 0 mm 1 mps 742 mmHg 19%
    01:00 +30°C° 0 mm 1 mps 741 mmHg 20%
    02:00 +29°C° 0 mm 1 mps 741 mmHg 20%
    03:00 +28°C° 0 mm 2 mps 741 mmHg 21%
    04:00 +28°C° 0 mm 1 mps 741 mmHg 21%
    05:00 +27°C° 0 mm 1 mps 742 mmHg 22%
    06:00 +27°C° 0 mm 1 mps 742 mmHg 22%
    07:00 +30°C° 0 mm 2 mps 743 mmHg 20%
    08:00 +34°C° 0 mm 2 mps 743 mmHg 18%
    09:00 +37°C° 0 mm 3 mps 744 mmHg 15%
    10:00 +39°C° 0 mm 3 mps 743 mmHg 14%
    11:00 +40°C° 0 mm 3 mps 743 mmHg 12%
    12:00 +43°C° 0 mm 3 mps 742 mmHg 11%
    13:00 +43°C° 0 mm 3 mps 741 mmHg 11%
    14:00 +43°C° 0 mm 3 mps 741 mmHg 10%
    15:00 +43°C° 0 mm 2 mps 740 mmHg 10%
    16:00 +40°C° 0 mm 2 mps 740 mmHg 12%
    17:00 +37°C° 0 mm 2 mps 741 mmHg 14%
    18:00 +35°C° 0 mm 2 mps 741 mmHg 16%
    19:00 +34°C° 0 mm 2 mps 741 mmHg 16%
    20:00 +33°C° 0 mm 1 mps 742 mmHg 17%
    21:00 +32°C° 0 mm 1 mps 743 mmHg 17%
    22:00 +31°C° 0 mm 2 mps 742 mmHg 17%
    23:00 +31°C° 0 mm 2 mps 742 mmHg 17%

    21 November, Wednesday

    Time Temperature Precipitation Wind Pressure Humidity
    00:00 +30°C° 0 mm 2 mps 742 mmHg 17%
    01:00 +29°C° 0 mm 2 mps 742 mmHg 17%
    02:00 +29°C° 0 mm 2 mps 742 mmHg 17%
    03:00 +28°C° 0 mm 2 mps 741 mmHg 16%
    04:00 +28°C° 0 mm 2 mps 742 mmHg 17%
    05:00 +27°C° 0 mm 2 mps 742 mmHg 17%
    06:00 +27°C° 0 mm 2 mps 742 mmHg 17%
    07:00 +29°C° 0 mm 2 mps 743 mmHg 14%
    08:00 +32°C° 0 mm 2 mps 743 mmHg 12%
    09:00 +36°C° 0 mm 2 mps 743 mmHg 10%
    10:00 +38°C° 0 mm 2 mps 743 mmHg 9%
    11:00 +40°C° 0 mm 3 mps 742 mmHg 7%
    12:00 +43°C° 0 mm 3 mps 741 mmHg 6%
    13:00 +43°C° 0 mm 3 mps 741 mmHg 6%
    14:00 +43°C° 0 mm 3 mps 740 mmHg 6%
    15:00 +43°C° 0 mm 2 mps 740 mmHg 6%
    16:00 +40°C° 0 mm 2 mps 740 mmHg 7%
    17:00 +37°C° 0 mm 2 mps 740 mmHg 9%
    18:00 +34°C° 0 mm 1 mps 741 mmHg 10%
    19:00 +34°C° 0 mm 2 mps 741 mmHg 10%
    20:00 +32°C° 0 mm 2 mps 742 mmHg 10%
    21:00 +33°C° 0 mm 3 mps 742 mmHg 10%
    22:00 +31°C° 0 mm 3 mps 742 mmHg 10%
    23:00 +30°C° 0 mm 3 mps 742 mmHg 11%
    Show more